When you browse on this site, cookies collect data to enhance your experience and personalize the content and advertising you see.
Visit our Privacy Policy to learn more. By continuing to use the site, you agree to this use of cookies and data.
  • In Lithuania
  • List of Countries
  • For 7 days
  • Water Temperature
  • Satellite Maps
  • Weather Map
  • Weather Widgets
  • user-avatar
    Login

    Hourly Weather Zhurishki

    Today, 16 June, Sunday

    Time Temperature Precipitation Wind Pressure Humidity
    00:00 +16°C° 0 mm 2 mps 741 mmHg 85%
    01:00 +15°C° 0 mm 2 mps 742 mmHg 87%
    02:00 +15°C° 0 mm 1 mps 742 mmHg 88%
    03:00 +14°C° 0 mm 1 mps 742 mmHg 90%
    04:00 +14°C° 0 mm 1 mps 742 mmHg 89%
    05:00 +15°C° 0 mm 1 mps 741 mmHg 89%
    06:00 +15°C° 0 mm 1 mps 741 mmHg 89%
    07:00 +16°C° 0 mm 1 mps 742 mmHg 85%
    08:00 +18°C° 0 mm 1 mps 742 mmHg 80%
    09:00 +17°C° 0 mm 0 mps 742 mmHg 76%
    10:00 +20°C° 0.3 mm 1 mps 742 mmHg 75%
    11:00 +21°C° 0.3 mm 1 mps 742 mmHg 74%
    12:00 +20°C° 0.3 mm 2 mps 742 mmHg 74%
    13:00 +21°C° 0.4 mm 2 mps 742 mmHg 71%
    14:00 +21°C° 0.4 mm 2 mps 742 mmHg 69%
    15:00 +23°C° 0.4 mm 2 mps 742 mmHg 67%
    16:00 +23°C° 0.1 mm 2 mps 742 mmHg 69%
    17:00 +23°C° 0.1 mm 2 mps 742 mmHg 71%
    18:00 +21°C° 0.1 mm 2 mps 741 mmHg 73%
    19:00 +20°C° 0 mm 2 mps 742 mmHg 78%
    20:00 +18°C° 0 mm 2 mps 742 mmHg 83%
    21:00 +18°C° 0 mm 1 mps 742 mmHg 88%
    22:00 +18°C° 0 mm 1 mps 742 mmHg 89%
    23:00 +16°C° 0 mm 1 mps 742 mmHg 89%

    Tomorrow, 17 June, Monday

    Time Temperature Precipitation Wind Pressure Humidity
    00:00 +15°C° 0 mm 1 mps 742 mmHg 90%
    01:00 +15°C° 0 mm 1 mps 742 mmHg 90%
    02:00 +15°C° 0 mm 1 mps 743 mmHg 90%
    03:00 +14°C° 0 mm 1 mps 743 mmHg 90%
    04:00 +15°C° 0 mm 1 mps 743 mmHg 89%
    05:00 +15°C° 0 mm 0 mps 743 mmHg 87%
    06:00 +15°C° 0 mm 0 mps 743 mmHg 86%
    07:00 +17°C° 0 mm 0 mps 743 mmHg 82%
    08:00 +20°C° 0 mm 1 mps 743 mmHg 77%
    09:00 +22°C° 0 mm 1 mps 743 mmHg 72%
    10:00 +23°C° 0.1 mm 1 mps 743 mmHg 69%
    11:00 +23°C° 0.1 mm 1 mps 743 mmHg 65%
    12:00 +24°C° 0.1 mm 2 mps 743 mmHg 62%
    13:00 +24°C° 0.1 mm 2 mps 743 mmHg 62%
    14:00 +25°C° 0.1 mm 3 mps 743 mmHg 62%
    15:00 +25°C° 0.1 mm 3 mps 742 mmHg 62%
    16:00 +25°C° 0 mm 3 mps 742 mmHg 65%
    17:00 +24°C° 0 mm 3 mps 742 mmHg 69%
    18:00 +24°C° 0 mm 3 mps 742 mmHg 73%
    19:00 +21°C° 0 mm 3 mps 742 mmHg 76%
    20:00 +19°C° 0 mm 2 mps 742 mmHg 79%
    21:00 +18°C° 0 mm 2 mps 742 mmHg 81%
    22:00 +19°C° 0 mm 1 mps 742 mmHg 80%
    23:00 +19°C° 0 mm 1 mps 742 mmHg 78%

    Day after tomorrow, 18 June, Tuesday

    Time Temperature Precipitation Wind Pressure Humidity
    00:00 +19°C° 0 mm 1 mps 742 mmHg 76%
    01:00 +19°C° 0 mm 1 mps 742 mmHg 78%
    02:00 +19°C° 0 mm 1 mps 742 mmHg 79%
    03:00 +18°C° 0 mm 1 mps 742 mmHg 81%
    04:00 +19°C° 0 mm 1 mps 742 mmHg 82%
    05:00 +19°C° 0 mm 1 mps 742 mmHg 83%
    06:00 +20°C° 0 mm 1 mps 742 mmHg 84%
    07:00 +21°C° 0.3 mm 1 mps 742 mmHg 82%
    08:00 +22°C° 0.3 mm 1 mps 742 mmHg 80%
    09:00 +22°C° 0.3 mm 1 mps 742 mmHg 78%
    10:00 +23°C° 0.7 mm 2 mps 742 mmHg 77%
    11:00 +23°C° 0.7 mm 2 mps 742 mmHg 76%
    12:00 +24°C° 0.7 mm 3 mps 742 mmHg 75%
    13:00 +24°C° 0.6 mm 3 mps 742 mmHg 74%
    14:00 +24°C° 0.6 mm 3 mps 742 mmHg 73%
    15:00 +25°C° 0.6 mm 3 mps 742 mmHg 72%
    16:00 +25°C° 0.2 mm 3 mps 742 mmHg 73%
    17:00 +24°C° 0.2 mm 3 mps 742 mmHg 74%
    18:00 +24°C° 0.2 mm 3 mps 742 mmHg 76%
    19:00 +23°C° 0 mm 2 mps 742 mmHg 79%
    20:00 +20°C° 0 mm 2 mps 742 mmHg 82%
    21:00 +20°C° 0 mm 1 mps 742 mmHg 86%
    22:00 +19°C° 0 mm 1 mps 742 mmHg 85%
    23:00 +19°C° 0 mm 1 mps 743 mmHg 85%

    19 June, Wednesday

    Time Temperature Precipitation Wind Pressure Humidity
    00:00 +17°C° 0 mm 2 mps 743 mmHg 85%
    01:00 +17°C° 0 mm 2 mps 743 mmHg 85%
    02:00 +16°C° 0 mm 2 mps 743 mmHg 85%
    03:00 +16°C° 0 mm 2 mps 743 mmHg 85%
    04:00 +16°C° 0 mm 2 mps 743 mmHg 85%
    05:00 +17°C° 0 mm 2 mps 744 mmHg 86%
    06:00 +17°C° 0 mm 2 mps 744 mmHg 86%
    07:00 +19°C° 0 mm 2 mps 744 mmHg 82%
    08:00 +20°C° 0 mm 3 mps 744 mmHg 78%
    09:00 +22°C° 0 mm 3 mps 744 mmHg 74%
    10:00 +24°C° 0.1 mm 3 mps 744 mmHg 69%
    11:00 +24°C° 0.1 mm 3 mps 745 mmHg 64%
    12:00 +25°C° 0.1 mm 4 mps 745 mmHg 59%
    13:00 +25°C° 0 mm 3 mps 745 mmHg 59%
    14:00 +26°C° 0 mm 3 mps 745 mmHg 58%
    15:00 +26°C° 0 mm 3 mps 745 mmHg 58%
    16:00 +26°C° 0 mm 3 mps 745 mmHg 62%
    17:00 +25°C° 0 mm 3 mps 745 mmHg 66%
    18:00 +25°C° 0 mm 3 mps 744 mmHg 71%
    19:00 +23°C° 0 mm 2 mps 745 mmHg 73%
    20:00 +21°C° 0 mm 2 mps 745 mmHg 76%
    21:00 +20°C° 0 mm 1 mps 745 mmHg 79%
    22:00 +19°C° 0 mm 1 mps 745 mmHg 78%
    23:00 +19°C° 0 mm 1 mps 745 mmHg 77%

    20 June, Thursday

    Time Temperature Precipitation Wind Pressure Humidity
    00:00 +18°C° 0 mm 1 mps 745 mmHg 77%
    01:00 +18°C° 0 mm 1 mps 745 mmHg 78%
    02:00 +16°C° 0 mm 1 mps 745 mmHg 79%
    03:00 +16°C° 0 mm 1 mps 746 mmHg 80%
    04:00 +18°C° 0 mm 1 mps 746 mmHg 81%
    05:00 +18°C° 0 mm 1 mps 746 mmHg 81%
    06:00 +19°C° 0 mm 1 mps 746 mmHg 82%
    07:00 +20°C° 0 mm 1 mps 746 mmHg 77%
    08:00 +22°C° 0 mm 1 mps 746 mmHg 71%
    09:00 +24°C° 0 mm 1 mps 746 mmHg 66%
    10:00 +25°C° 0 mm 1 mps 746 mmHg 62%
    11:00 +26°C° 0 mm 1 mps 746 mmHg 57%
    12:00 +27°C° 0 mm 2 mps 746 mmHg 52%
    13:00 +27°C° 0 mm 1 mps 746 mmHg 51%
    14:00 +27°C° 0 mm 1 mps 746 mmHg 50%
    15:00 +27°C° 0 mm 1 mps 746 mmHg 48%
    16:00 +27°C° 0 mm 1 mps 746 mmHg 51%
    17:00 +27°C° 0 mm 1 mps 746 mmHg 54%
    18:00 +25°C° 0 mm 0 mps 746 mmHg 57%
    19:00 +25°C° 0 mm 1 mps 746 mmHg 60%
    20:00 +23°C° 0 mm 1 mps 746 mmHg 63%
    21:00 +21°C° 0 mm 1 mps 746 mmHg 66%
    22:00 +21°C° 0 mm 1 mps 746 mmHg 68%
    23:00 +20°C° 0 mm 1 mps 746 mmHg 71%

    21 June, Friday

    Time Temperature Precipitation Wind Pressure Humidity
    00:00 +19°C° 0 mm 1 mps 746 mmHg 73%
    01:00 +19°C° 0 mm 1 mps 746 mmHg 75%
    02:00 +18°C° 0 mm 1 mps 746 mmHg 76%
    03:00 +18°C° 0 mm 1 mps 746 mmHg 78%
    04:00 +19°C° 0 mm 1 mps 747 mmHg 79%
    05:00 +20°C° 0 mm 1 mps 747 mmHg 80%
    06:00 +20°C° 0 mm 1 mps 747 mmHg 81%
    07:00 +22°C° 0 mm 1 mps 747 mmHg 76%
    08:00 +23°C° 0 mm 1 mps 747 mmHg 71%
    09:00 +25°C° 0 mm 2 mps 747 mmHg 67%
    10:00 +26°C° 0 mm 2 mps 747 mmHg 63%
    11:00 +26°C° 0 mm 2 mps 747 mmHg 59%
    12:00 +27°C° 0 mm 3 mps 747 mmHg 54%
    13:00 +27°C° 0 mm 3 mps 746 mmHg 55%
    14:00 +27°C° 0 mm 3 mps 746 mmHg 56%
    15:00 +28°C° 0 mm 3 mps 746 mmHg 57%
    16:00 +27°C° 0 mm 3 mps 746 mmHg 61%
    17:00 +27°C° 0 mm 3 mps 745 mmHg 65%
    18:00 +27°C° 0 mm 2 mps 745 mmHg 69%
    19:00 +25°C° 0 mm 2 mps 745 mmHg 71%
    20:00 +24°C° 0 mm 2 mps 745 mmHg 74%
    21:00 +21°C° 0 mm 2 mps 745 mmHg 77%
    22:00 +20°C° 0 mm 2 mps 745 mmHg 79%
    23:00 +20°C° 0 mm 2 mps 745 mmHg 81%
    Show more